Tracking 19847 objects as of 16-Sep-2019
HD Live streaming from Space Station
objects crossing your sky now

FENGYUN 1C DEB

Track FENGYUN 1C DEB now!
10-day predictions


NORAD ID: 35109
Int'l Code: 1999-025DKM
Perigee: 724.4 km
Apogee: 954.3 km
Inclination: 98.6 °
Period: 101.6 minutes
Semi major axis: 7210 km
RCS: 0.0098 m2 (small)
Launch date: May 10, 1999
Source: People's Republic of China (PRC)
Launch site: Taiyaun Space Center, China (TSC)

Note: This is SATELLITE DEBRIS
aabbcc
Your satellite tracking list
Your tracking list is empty




NASA's NSSDC Master Catalog

Two Line Element Set (TLE):
1 35109U 99025DKM 19259.30830864  .00000047  00000-0  38219-4 0  9999
2 35109  98.6420 285.6765 0159429 134.1374 227.3042 14.17974248562157
Source of the keplerian elements: AFSPC